Weather History for Darwin Airport, Northern Territory

Change the Weather History Date:

Friday, August 30, 2013

  Actual Average Record
Temperature  
Mean Temperature 80 °F -  
Max Temperature 88 °F 91 °F - ()
Min Temperature 73 °F 74 °F - ()
Cooling Degree Days 16    
Growing Degree Days 30 (Base 50)    
Moisture  
Dew Point 69 °F    
Average Humidity 67    
Maximum Humidity 94    
Minimum Humidity 36    
Precipitation  
Precipitation 0.00 in 0.02 in - ()
Sea Level Pressure  
Sea Level Pressure 29.93 in    
Wind  
Wind Speed 8 mph ()    
Max Wind Speed 15 mph    
Max Gust Speed -    
Visibility 8.2 miles    
Events      
T = Trace of Precipitation, MM = Missing Value Source: Averaged Metar Reports

Daily Weather History Graph

Daily Weather History Graph

Search for Another Location

Airport:

Trip Planner

Search our weather history database for the weather conditions in past years. The results will help you decide how hot, cold, wet, or windy it might be!

Date:

Astronomy

Aug. 30, 2013 Rise Set
Actual Time 6:51 AM ACST 6:42 PM ACST
Civil Twilight 6:30 AM ACST 7:04 PM ACST
Nautical Twilight 6:05 AM ACST 7:28 PM ACST
Astronomical Twilight 5:40 AM ACST 7:53 PM ACST
Moon 1:52 AM ACST (8/30) 1:38 PM ACST (8/30)
Length of Visible Light 12h 33m
Length of Day
11h 50m
Waning Crescent, 34% of the Moon is Illuminated
Aug 30
Waning Crescent
Sep 5
New
Sep 13
First Quarter
Sep 19
Full
Sep 27
Last Quarter

Hourly Weather History & Observations

Time (ACST) Temp. Heat Index Dew Point Humidity Pressure Visibility Wind Dir Wind Speed Gust Speed Precip Events Conditions
12:00 AM 78 °F - 72 °F 75% 29.93 in 16 mi West 8.1 mph - -   Smoke
12:00 AM 78.8 °F - 71.6 °F 78% 29.92 in 6.2 mi West 8.1 mph - N/A   Partly Cloudy
12:30 AM 78 °F - 72 °F 77% 29.93 in - West 8.1 mph - -  
12:30 AM 78.8 °F - 71.6 °F 78% 29.92 in 6.2 mi West 8.1 mph - N/A   Scattered Clouds
1:00 AM 78.8 °F - 71.6 °F 78% 29.92 in 6.2 mi WSW 9.2 mph - N/A   Partly Cloudy
1:30 AM 77.0 °F - 71.6 °F 83% 29.92 in 6.2 mi WSW 5.8 mph - N/A   Partly Cloudy
2:00 AM 77.0 °F - 71.6 °F 83% 29.92 in 6.2 mi South 6.9 mph - N/A   Mostly Cloudy
2:30 AM 77.0 °F - 71.6 °F 83% 29.92 in 6.2 mi South 8.1 mph - N/A   Partly Cloudy
3:00 AM 76 °F - 71 °F 82% 29.92 in 12 mi South 5.8 mph - -   Smoke
3:00 AM 75.2 °F - 71.6 °F 89% 29.92 in 6.2 mi South 5.8 mph - N/A   Scattered Clouds
3:30 AM 75 °F - 71 °F 85% 29.92 in - SSE 5.8 mph - -  
3:30 AM 75.2 °F - 71.6 °F 89% 29.92 in 6.2 mi SSE 5.8 mph - N/A   Mostly Cloudy
4:00 AM 75.2 °F - 71.6 °F 89% 29.92 in 6.2 mi ESE 4.6 mph - N/A   Partly Cloudy
4:30 AM 73.4 °F - 71.6 °F 94% 29.92 in 6.2 mi ENE 5.8 mph - N/A   Mostly Cloudy
5:00 AM 73.4 °F - 69.8 °F 88% 29.92 in 6.2 mi East 5.8 mph - N/A   Partly Cloudy
5:30 AM 75.2 °F - 69.8 °F 83% 29.92 in 6.2 mi ESE 6.9 mph - N/A   Scattered Clouds
6:00 AM 75 °F - 70 °F 81% 29.95 in 16 mi ESE 5.8 mph - -   Smoke
6:00 AM 75.2 °F - 69.8 °F 83% 29.95 in 6.2 mi ESE 5.8 mph - N/A   Scattered Clouds
6:30 AM 75 °F - 70 °F 80% 29.96 in - SE 6.9 mph - -  
6:30 AM 75.2 °F - 69.8 °F 83% 29.95 in 6.2 mi SE 6.9 mph - N/A   Scattered Clouds
7:00 AM 75.2 °F - 69.8 °F 83% 29.98 in 6.2 mi ESE 5.8 mph - N/A   Partly Cloudy
7:30 AM 75.2 °F - 69.8 °F 83% 29.98 in 6.2 mi East 6.9 mph - N/A   Scattered Clouds
8:00 AM 78.8 °F - 69.8 °F 74% 29.98 in 6.2 mi East 8.1 mph - N/A   Partly Cloudy
8:30 AM 78.8 °F - 71.6 °F 78% 30.01 in 6.2 mi East 8.1 mph - N/A   Partly Cloudy
9:00 AM 81 °F - 70 °F 62% 30.00 in 19 mi NE 5.8 mph - -   Partly Cloudy
9:00 AM 80.6 °F 83.9 °F 69.8 °F 70% 30.01 in 6.2 mi NE 5.8 mph - N/A   Partly Cloudy
9:30 AM 82 °F - 69 °F 56% 30.01 in - NE 5.8 mph - -  
9:30 AM 82.4 °F 85.4 °F 68.0 °F 62% 30.01 in 6.2 mi NE 5.8 mph - N/A   Scattered Clouds
10:00 AM 84.2 °F 87.3 °F 68.0 °F 58% 30.01 in 6.2 mi ENE 5.8 mph - N/A   Partly Cloudy
10:30 AM 86.0 °F 88.2 °F 66.2 °F 51% 30.01 in 6.2 mi NNE 5.8 mph - N/A   Scattered Clouds
11:00 AM 86.0 °F 89.4 °F 68.0 °F 55% 29.98 in 6.2 mi North 6.9 mph - N/A   Scattered Clouds
11:30 AM 86.0 °F 90.4 °F 69.8 °F 58% 29.98 in 6.2 mi WSW 10.4 mph - N/A   Scattered Clouds
12:00 PM 85 °F - 71 °F 53% 29.97 in 19 mi West 12.7 mph - -   Partly Cloudy
12:00 PM 86.0 °F 90.4 °F 69.8 °F 58% 29.98 in 6.2 mi West 12.7 mph - N/A   Mostly Cloudy
12:30 PM 84.2 °F 88.4 °F 69.8 °F 62% 29.95 in 6.2 mi WNW 12.7 mph - N/A   Partly Cloudy
1:00 PM 84.2 °F 88.4 °F 69.8 °F 62% 29.95 in 6.2 mi WNW 12.7 mph - N/A   Partly Cloudy
1:30 PM 87.8 °F 92.6 °F 69.8 °F 55% 29.92 in 6.2 mi WNW 12.7 mph - N/A   Partly Cloudy
2:00 PM 86.0 °F 89.4 °F 68.0 °F 55% 29.92 in 6.2 mi NNW 11.5 mph - N/A   Partly Cloudy
2:30 PM 87.8 °F 91.4 °F 68.0 °F 52% 29.89 in 6.2 mi North 13.8 mph - N/A   Partly Cloudy
3:00 PM 87 °F - 67 °F 42% 29.89 in 19 mi North 15.0 mph - -   Partly Cloudy
3:00 PM 87.8 °F 90.4 °F 66.2 °F 49% 29.89 in - North 15.0 mph - N/A   Clear
3:30 PM 88 °F - 67 °F 39% 29.88 in - NNW 13.8 mph - -  
3:30 PM 87.8 °F 90.4 °F 66.2 °F 49% 29.86 in - NNW 13.8 mph - N/A   Clear
4:00 PM 87.8 °F 89.4 °F 64.4 °F 46% 29.86 in - North 15.0 mph - N/A   Clear
4:30 PM 87.8 °F 89.4 °F 64.4 °F 46% 29.86 in - NNE 13.8 mph - N/A   Clear
5:00 PM 87.8 °F 89.4 °F 64.4 °F 46% 29.86 in - North 13.8 mph - N/A   Clear
5:30 PM 87.8 °F 88.5 °F 62.6 °F 43% 29.86 in - North 13.8 mph - N/A   Clear
6:00 PM 86 °F - 63 °F 36% 29.86 in 19 mi North 11.5 mph - -   Partly Cloudy
6:00 PM 86.0 °F 86.6 °F 62.6 °F 45% 29.86 in - North 11.5 mph - N/A   Clear
6:30 PM 85 °F - 64 °F 40% 29.87 in - North 10.4 mph - -  
6:30 PM 84.2 °F 85.6 °F 64.4 °F 51% 29.86 in - North 10.4 mph - N/A   Clear
7:00 PM 84.2 °F 86.6 °F 66.2 °F 55% 29.86 in 6.2 mi North 9.2 mph - N/A   Partly Cloudy
7:30 PM 82.4 °F 84.6 °F 66.2 °F 58% 29.89 in - North 8.1 mph - N/A   Clear
8:00 PM 82.4 °F 85.4 °F 68.0 °F 62% 29.89 in - NNW 5.8 mph - N/A   Clear
8:30 PM 80.6 °F 83.9 °F 69.8 °F 70% 29.92 in - NNE 6.9 mph - N/A   Clear
9:00 PM 80 °F - 72 °F 70% 29.92 in 19 mi NNW 5.8 mph - -   Partly Cloudy
9:00 PM 80.6 °F 84.6 °F 71.6 °F 74% 29.92 in 6.2 mi NNW 5.8 mph - N/A   Partly Cloudy
9:30 PM 80 °F - 74 °F 76% 29.93 in - NNW 4.6 mph - -  
9:30 PM 80.6 °F 85.4 °F 73.4 °F 79% 29.92 in 6.2 mi NNW 4.6 mph - N/A   Partly Cloudy
10:00 PM 78.8 °F - 73.4 °F 83% 29.92 in 6.2 mi West 5.8 mph - N/A   Partly Cloudy
10:30 PM 78.8 °F - 71.6 °F 78% 29.92 in 6.2 mi WSW 5.8 mph - N/A   Partly Cloudy
11:30 PM 78.8 °F - 71.6 °F 78% 29.92 in 6.2 mi WSW 6.9 mph - N/A   Partly Cloudy